GEFSNGP_con_probscp_150.txt.gz
Probability
1 1 1 0 0 0 0 0 0 0 0 0 0 0 0 1 2 3 4 4 4 3 3 2 1 0 0 0 0 0 0 0 0 0 0 0 0 0 0 0 0 0 0 0
2 2 1 0 0 0 0 0 0 0 0 0 1 2 1 1 3 4 5 6 6 5 3 2 2 1 1 1 1 1 1 1 0 1 1 0 0 0 0 0 0 0 0 0
1 1 1 0 0 0 0 0 0 0 0 1 4 5 3 2 3 6 8 11 11 7 3 2 3 3 3 3 2 2 2 2 1 1 1 0 0 0 1 0 0 0 0 0
0 0 0 0 0 0 0 0 1 1 1 2 5 7 5 3 4 7 10 14 14 9 4 3 5 5 4 4 3 3 3 3 2 1 1 0 0 0 0 0 0 0 0 0
0 0 0 0 0 0 0 0 1 2 2 3 6 8 7 6 6 7 10 12 11 7 5 6 7 7 5 4 4 4 3 3 3 1 1 1 1 0 0 0 0 0 0 0
0 0 0 0 0 0 0 0 1 1 2 5 8 8 8 8 7 7 7 7 8 7 7 9 9 7 5 4 4 3 3 3 3 3 2 2 2 1 0 0 0 0 0 0
0 0 0 0 0 0 0 0 0 0 2 6 7 7 6 7 6 5 4 4 5 6 7 8 9 7 5 4 3 3 3 3 3 3 3 3 3 2 1 1 1 1 0 0
0 0 0 0 0 0 0 2 2 1 2 4 6 6 6 7 6 4 4 4 4 6 8 7 7 7 5 3 3 3 4 4 3 2 2 3 3 3 3 2 2 2 1 0
0 0 0 0 0 0 1 4 5 4 4 5 6 7 8 8 8 6 6 5 6 8 8 6 5 5 5 4 3 4 4 4 3 2 2 3 3 3 3 3 3 3 2 1
0 1 1 1 0 0 2 5 6 6 6 7 9 8 8 9 9 8 7 8 9 10 9 7 5 4 4 3 3 3 4 4 3 3 3 3 3 3 3 3 3 3 3 3
1 1 2 2 1 0 2 5 7 8 8 9 10 9 9 9 9 9 8 9 10 10 8 6 4 3 3 3 3 3 3 3 4 4 4 3 3 3 2 2 2 3 3 3
0 1 1 1 1 0 2 5 8 8 7 8 8 7 7 8 7 7 7 7 7 7 5 4 3 3 3 3 3 3 3 3 4 4 4 3 2 1 1 1 1 1 2 2
0 0 0 0 0 0 1 4 6 6 5 4 4 4 4 4 5 6 6 5 4 4 3 2 3 3 3 3 3 3 3 3 3 3 2 1 1 0 0 0 0 0 1 1
0 0 0 0 0 0 1 3 5 4 3 1 1 1 1 1 3 3 3 3 3 2 1 1 1 3 3 3 3 3 3 3 2 1 1 1 1 0 0 0 0 0 0 0
0 0 0 0 0 0 1 2 4 4 2 0 0 0 0 0 1 1 1 1 1 1 0 0 1 2 3 3 3 3 3 2 1 0 0 0 0 0 0 0 0 0 0 0
0 0 0 0 0 0 0 1 3 3 2 0 0 0 0 0 0 0 0 0 0 0 0 0 1 2 2 3 3 3 3 1 0 0 0 0 0 0 0 0 0 0 0 0
0 0 0 0 0 0 0 0 1 1 1 0 0 0 0 0 0 0 0 0 0 0 0 0 0 1 1 1 2 2 2 1 0 0 0 0 0 0 0 0 0 0 0 0
0 0 0 0 0 0 0 0 0 0 0 0 0 0 0 0 0 0 0 0 0 0 0 0 0 0 0 0 1 1 1 0 0 0 0 0 0 0 0 0 0 0 0 0
0 0 0 0 0 0 0 0 0 0 0 0 0 0 0 0 0 0 0 0 0 0 0 0 0 0 0 0 0 0 0 0 0 0 0 0 0 0 0 0 0 0 0 0
0 0 0 0 0 0 0 0 0 0 0 0 0 0 0 0 0 0 0 0 0 0 0 0 0 0 0 0 0 0 0 0 0 0 0 0 0 0 0 0 0 0 0 0
0 0 0 0 0 0 0 0 0 0 0 0 0 0 0 0 0 0 0 0 0 0 0 0 0 0 0 0 0 0 0 0 0 0 0 0 0 0 0 0 0 0 0 0
0 0 0 0 0 0 0 0 0 0 0 0 0 0 0 0 0 0 0 0 0 0 0 0 0 0 0 0 0 0 0 0 0 0 0 0 0 0 0 0 0 0 0 0
0 0 0 0 0 0 0 0 0 0 0 0 0 0 0 0 0 0 0 0 0 0 0 0 0 0 0 0 0 0 0 0 0 0 0 0 0 0 0 0 0 0 0 0
0 0 0 0 0 0 0 0 0 0 0 0 0 0 0 0 0 0 0 0 0 0 0 0 0 0 0 0 0 0 0 0 0 0 0 0 0 0 0 0 0 0 0 0
0 0 0 0 0 0 0 0 0 0 0 0 0 0 0 0 0 0 0 0 0 0 0 0 0 0 0 0 0 0 0 0 0 0 0 0 0 0 0 0 0 0 0 0
0 0 0 0 0 0 0 0 0 0 0 0 0 0 0 0 0 0 0 0 0 0 0 0 0 0 0 0 0 0 0 0 0 0 0 0 0 0 0 0 0 0 0 0
0 0 0 0 0 0 0 0 0 0 0 0 0 0 0 0 0 0 0 0 0 0 0 0 0 0 0 0 0 0 0 0 0 0 0 0 0 0 0 0 0 0 0 0

GEFSNGP_con_probscp_156.txt.gz
Probability
0 0 0 0 0 0 0 0 0 0 1 4 6 7 8 11 17 23 26 26 30 32 29 26 23 18 14 13 13 11 10 11 11 10 9 9 7 4 2 1 1 2 1 0
0 0 0 0 0 0 0 0 0 0 2 5 8 8 9 13 20 24 26 27 30 32 31 26 22 19 18 16 14 14 14 14 13 11 11 10 7 5 3 2 2 3 2 1
0 0 0 0 0 0 0 0 0 1 4 8 10 10 12 16 20 23 25 29 32 33 33 30 25 22 22 21 18 17 18 18 17 16 14 12 9 6 5 4 3 2 1 0
0 0 0 0 0 0 0 1 2 5 8 12 14 14 15 17 19 21 24 29 33 35 36 35 31 27 26 24 21 21 21 21 20 19 17 13 9 8 6 3 1 1 0 1
0 0 0 0 0 0 0 1 3 6 11 15 17 17 17 20 21 22 24 30 34 36 38 39 35 30 29 27 24 24 24 22 19 18 16 12 10 9 7 3 1 0 1 2
0 0 0 0 0 0 0 1 5 9 13 15 17 19 23 25 26 25 28 33 36 38 40 39 36 32 30 28 25 24 23 21 17 15 13 12 11 10 7 5 2 1 2 3
0 0 1 1 1 1 3 4 10 16 19 20 23 29 33 33 31 30 32 35 37 38 38 37 36 34 30 26 23 22 20 18 15 12 11 12 12 10 8 6 4 3 3 4
1 1 3 4 5 6 9 11 16 20 24 28 34 37 36 35 34 33 33 34 35 34 34 33 33 31 27 22 19 19 18 17 14 11 10 11 11 10 9 7 6 5 4 4
6 7 9 10 11 13 16 20 21 22 24 29 33 32 29 29 31 32 31 31 30 29 28 29 28 26 23 19 16 17 18 16 13 11 10 10 11 11 10 8 6 4 4 4
13 14 15 15 15 16 19 23 25 23 22 24 24 23 21 24 28 29 29 28 28 26 24 24 23 21 18 15 14 15 15 14 11 10 10 10 11 11 10 8 6 4 3 3
15 18 21 20 17 16 18 20 22 21 18 18 20 19 19 22 26 27 26 26 27 25 22 21 19 17 15 13 12 12 12 10 9 9 9 10 10 10 8 6 4 3 2 2
16 18 22 22 18 16 15 16 19 21 18 17 19 19 19 22 26 27 24 25 26 25 22 19 17 14 13 12 11 10 9 8 7 8 9 9 9 8 6 4 2 1 1 1
16 16 18 18 16 14 13 14 18 21 20 19 18 19 19 22 25 26 23 22 23 22 20 17 15 13 12 10 10 9 7 6 5 5 7 9 10 8 5 2 1 1 0 0
11 12 12 11 10 10 11 13 15 17 18 17 17 17 17 18 20 21 18 16 17 17 16 15 13 11 9 8 8 7 5 4 4 4 6 8 9 7 4 2 2 1 0 0
4 6 7 6 6 7 9 11 11 11 12 13 13 13 12 11 12 13 12 11 11 11 11 10 9 8 7 6 6 6 5 4 3 4 6 6 6 4 2 1 1 1 0 0
1 2 3 4 4 5 6 6 6 7 7 8 8 8 6 6 7 8 8 7 7 6 4 3 4 5 6 5 5 6 6 4 3 4 5 4 3 1 0 0 0 0 0 0
0 0 1 2 3 3 3 3 3 2 3 4 5 4 3 4 5 6 5 5 3 2 1 0 1 2 3 4 4 4 4 4 3 4 4 3 2 1 0 0 0 0 0 0
0 0 1 1 2 2 1 1 1 0 1 1 2 3 2 3 4 4 3 2 1 1 0 0 0 0 1 1 1 2 3 4 5 5 3 2 2 1 0 0 0 0 0 0
0 0 0 0 1 1 0 0 0 0 0 0 1 1 1 1 2 2 1 0 0 0 0 0 0 1 1 0 0 1 2 3 4 4 2 1 1 1 0 0 0 0 0 0
0 0 0 0 0 0 0 0 0 0 0 0 0 1 1 0 1 1 0 0 0 0 0 0 0 1 1 0 0 0 1 1 1 1 0 0 0 0 0 0 0 0 0 0
0 0 0 0 0 0 0 0 0 0 0 0 1 2 1 0 0 0 0 0 0 0 0 0 0 1 1 0 0 0 0 0 0 0 0 0 0 0 0 0 0 0 0 0
0 0 0 0 0 0 0 0 0 0 0 0 1 2 1 0 0 0 0 0 0 0 0 0 0 0 0 0 0 0 0 0 0 0 0 0 0 0 0 0 0 0 0 0
0 0 0 0 0 0 0 0 0 0 0 0 1 1 0 0 0 0 0 0 1 0 0 0 0 0 0 0 0 0 0 0 0 0 0 0 0 0 0 0 0 0 0 0
0 0 0 0 0 0 0 0 0 0 0 0 0 0 0 0 0 0 0 0 0 0 0 0 0 0 0 0 0 0 0 0 0 0 0 0 0 0 0 0 0 0 0 0
0 0 0 0 0 0 0 0 0 0 0 0 0 0 0 0 0 0 0 0 0 0 0 0 0 0 0 0 0 0 0 0 0 0 0 0 0 0 0 0 0 0 0 0
0 0 0 0 0 0 0 0 0 0 0 0 0 0 0 0 0 0 0 0 0 0 0 0 0 0 0 0 0 0 0 0 0 0 0 0 0 0 0 0 0 0 0 0
0 0 0 0 0 0 0 0 0 0 0 0 0 0 0 0 0 0 0 0 0 0 0 0 0 0 0 0 0 0 0 0 0 0 0 0 0 0 0 0 0 0 0 0

GEFSNGP_con_probscp_162.txt.gz
Probability
0 0 0 0 0 0 0 0 0 4 12 20 24 24 23 26 31 37 46 54 60 64 64 60 55 51 48 45 41 38 36 32 28 24 23 22 19 17 16 15 14 14 13 10
0 0 0 0 0 0 0 1 1 5 14 22 26 26 25 27 31 37 45 53 59 63 63 60 56 52 51 48 44 41 37 33 28 25 24 22 20 19 18 16 14 13 11 10
0 0 0 0 0 0 1 4 6 11 19 25 29 31 31 32 38 44 47 52 59 63 62 60 56 54 53 51 48 42 38 34 30 27 26 25 22 21 21 18 15 13 12 10
0 0 0 0 1 1 4 9 14 18 24 31 35 37 38 42 48 53 54 57 62 64 62 59 56 54 52 52 49 42 37 34 31 28 27 26 24 23 22 20 16 14 13 11
0 0 0 1 2 3 7 16 24 29 33 37 39 40 44 48 51 55 58 61 64 65 63 61 58 55 54 54 50 42 36 34 31 28 26 25 24 24 22 20 17 14 12 12
0 0 2 5 5 5 10 23 35 41 45 45 44 46 50 50 51 56 60 61 63 65 66 65 62 58 56 55 50 43 38 35 32 28 25 24 22 21 20 18 15 12 11 11
0 1 6 10 10 13 23 36 46 52 54 52 53 56 58 57 57 59 61 60 61 64 67 67 63 58 54 53 51 47 42 37 32 27 23 20 20 19 17 15 13 12 11 10
5 8 17 23 23 28 41 48 51 53 54 54 58 61 62 62 62 60 59 59 59 62 64 64 60 56 52 51 51 48 41 33 27 23 19 17 17 16 16 14 14 14 13 11
17 21 29 35 37 40 43 44 45 47 48 50 54 56 57 59 59 56 54 55 56 56 58 57 55 51 48 47 46 42 34 26 22 20 18 16 15 14 14 14 14 14 13 11
25 27 30 33 36 37 36 35 39 43 44 46 48 47 48 50 51 49 48 49 49 49 48 47 46 44 41 39 39 34 27 22 19 18 17 16 13 12 12 11 11 12 13 13
25 26 27 28 29 30 32 33 36 40 41 41 41 41 40 41 42 41 41 42 42 42 40 37 36 35 33 32 32 29 23 20 18 16 14 13 11 9 8 7 7 9 11 11
30 30 30 29 27 26 29 32 34 38 39 38 39 37 33 33 34 34 35 36 37 37 34 31 28 28 27 27 27 24 20 17 14 13 11 10 9 7 4 3 2 3 4 4
34 32 29 28 26 24 26 31 33 36 37 36 36 33 29 29 30 31 32 33 33 33 31 27 24 23 22 22 22 19 16 13 11 10 9 8 8 8 5 3 1 0 0 0
27 25 25 24 23 22 23 26 28 28 28 28 28 28 28 29 31 30 31 32 32 30 26 23 21 19 18 18 16 15 13 11 10 10 9 8 8 9 8 6 4 1 0 0
14 15 18 21 20 18 19 21 21 20 18 18 19 22 25 29 30 29 28 29 28 24 20 19 17 16 15 15 14 13 12 10 9 9 9 8 9 9 9 9 6 2 1 0
7 8 11 15 15 13 14 17 17 15 13 12 13 15 19 23 25 25 24 23 21 19 17 15 13 12 12 13 13 12 10 9 8 8 7 8 8 8 8 7 6 4 2 1
4 5 8 10 10 10 11 12 14 13 10 8 8 9 13 17 19 19 19 18 17 17 15 12 10 10 9 9 10 9 8 7 7 7 6 7 7 6 6 6 6 5 2 0
2 4 6 7 8 9 9 9 9 9 7 5 5 7 11 14 16 17 17 17 16 16 13 9 7 7 7 6 5 4 5 5 6 6 6 6 6 6 6 6 6 4 1 0
2 3 4 6 7 7 6 7 7 6 5 4 3 6 10 12 14 16 17 16 15 12 9 6 4 4 4 4 2 1 1 2 3 5 6 5 6 6 5 5 5 3 1 0
1 2 3 5 6 6 5 5 6 5 4 3 2 3 6 8 10 12 14 13 12 9 6 4 3 3 3 3 1 0 0 0 2 4 4 4 4 4 3 3 3 1 0 0
2 3 4 6 7 7 6 6 6 4 3 2 1 2 4 6 8 10 11 10 8 6 4 3 3 3 3 3 1 1 0 0 1 2 2 2 1 1 1 1 1 0 0 0
7 7 8 9 9 8 7 6 5 4 3 2 2 2 4 7 8 9 8 7 5 3 2 2 2 2 2 2 2 2 1 0 1 1 1 0 0 0 0 0 0 0 0 0
11 11 12 11 9 7 5 4 3 3 2 2 2 3 4 6 7 6 4 3 1 1 0 0 1 1 1 2 2 2 1 1 1 1 0 0 0 0 0 0 0 0 0 0
8 9 10 9 5 3 2 1 1 1 1 1 1 2 3 4 4 3 1 0 0 0 0 0 0 0 1 1 1 1 1 2 2 1 0 0 0 0 0 0 0 0 0 0
4 6 6 4 2 1 0 0 0 0 0 0 0 1 1 2 2 2 1 0 0 0 0 0 0 0 1 1 1 0 1 2 2 1 0 0 0 0 0 0 0 0 0 0
3 3 3 2 1 1 0 0 0 0 0 0 0 0 0 1 1 1 0 0 0 0 0 0 0 0 0 0 0 0 0 1 1 0 0 0 0 0 0 0 0 0 0 0
1 1 1 1 1 1 0 0 0 0 0 0 0 0 0 0 0 0 0 0 0 0 0 0 0 0 0 0 0 0 0 0 0 0 0 0 0 0 0 0 0 0 0 0

GEFSNGP_con_probscp_168.txt.gz
Probability
0 0 0 1 1 1 1 1 3 7 11 13 14 19 24 27 30 32 34 35 35 34 32 29 27 24 17 12 9 9 9 7 6 5 4 4 5 5 4 2 0 0 0 0
0 0 1 2 3 3 3 4 6 10 15 16 17 22 28 32 35 36 36 38 39 39 37 34 30 24 18 13 11 11 10 7 6 6 5 4 5 6 5 3 1 1 0 0
0 0 1 2 3 4 6 9 13 15 18 21 23 27 33 38 41 42 41 42 42 42 41 40 35 27 19 15 13 12 10 8 6 6 5 4 5 6 6 4 3 2 1 1
0 0 1 2 3 5 11 18 21 21 23 26 30 32 36 40 41 41 42 43 41 39 40 41 38 30 23 19 17 14 11 8 7 7 5 4 5 6 6 5 4 4 3 3
0 0 1 3 5 8 17 27 29 29 30 32 35 39 39 38 37 38 39 39 38 37 39 39 37 32 26 23 20 16 12 9 8 7 5 5 7 7 7 6 6 6 6 6
0 0 2 5 9 13 20 27 30 32 34 35 38 40 38 36 37 38 39 39 39 39 39 36 33 31 28 24 21 15 10 8 8 7 6 7 8 8 8 7 7 7 7 7
0 1 3 7 11 14 18 22 26 31 33 34 34 34 33 34 36 38 39 41 41 39 35 31 29 30 29 26 21 15 9 8 8 8 7 7 7 7 7 8 9 9 8 7
0 1 4 8 10 12 14 19 24 29 31 33 33 33 31 31 32 34 35 37 37 35 32 28 29 30 30 26 21 15 11 9 9 8 7 6 6 6 7 7 8 9 8 7
6 7 8 9 10 11 12 16 20 24 28 33 34 32 29 27 27 27 26 27 29 30 28 26 28 28 25 21 18 14 11 9 9 8 7 6 6 6 6 7 7 7 6 5
15 15 13 11 11 12 13 15 17 19 25 30 30 27 25 23 22 22 22 22 24 25 24 24 24 24 21 18 15 11 9 7 7 7 6 6 6 6 6 6 6 6 6 5
16 15 14 13 13 15 17 19 20 22 24 25 24 22 20 20 20 20 22 23 22 21 20 19 19 18 18 15 12 9 7 6 5 6 6 6 5 5 5 5 4 4 5 5
13 13 14 15 15 17 20 22 25 25 25 24 22 19 19 19 18 19 20 21 20 18 15 14 14 14 13 11 9 7 6 6 5 5 6 5 4 4 4 4 3 3 4 4
12 13 15 15 14 15 18 22 25 24 22 20 20 19 19 18 16 15 15 16 16 13 11 11 11 10 9 8 7 7 6 6 6 6 6 5 3 3 3 3 2 1 2 2
8 10 12 12 10 11 14 17 19 17 14 14 15 16 16 14 12 11 10 11 11 10 9 10 10 9 8 7 6 6 6 6 6 6 6 4 3 3 3 3 2 1 1 1
4 4 6 7 6 7 9 11 12 10 8 8 9 10 10 8 7 6 7 9 9 9 9 10 10 9 7 6 6 5 5 6 6 5 4 3 2 2 3 3 3 2 1 0
2 2 2 2 2 3 5 7 7 6 5 4 4 4 5 6 5 4 6 8 8 8 8 8 7 6 4 3 3 3 3 4 4 2 1 1 1 1 3 3 3 2 1 0
1 0 0 0 0 1 2 3 4 4 3 3 3 2 2 4 4 3 3 4 4 4 4 4 3 2 1 1 1 1 1 1 1 0 0 0 0 1 2 3 3 2 1 0
0 0 0 0 0 0 1 2 2 2 2 2 2 1 0 1 1 1 1 1 1 1 1 1 0 0 0 0 0 0 0 0 0 0 0 0 0 0 1 1 2 2 1 0
1 1 1 1 1 1 2 2 1 1 1 1 1 0 0 0 0 0 0 0 0 0 0 0 0 0 0 0 0 0 0 0 0 0 0 0 0 0 0 0 1 1 0 0
2 2 2 2 1 1 2 2 1 0 0 0 0 0 0 0 0 0 0 0 0 0 0 0 0 0 0 0 0 0 0 0 0 0 0 0 0 0 0 0 0 0 0 0
1 1 1 1 1 1 1 1 0 0 0 0 0 0 0 0 0 0 0 0 0 0 0 0 0 0 0 0 0 0 0 0 0 0 0 0 0 0 0 0 0 0 0 0
0 0 0 0 0 0 0 0 0 0 0 0 0 0 0 0 0 0 0 0 0 0 0 0 0 0 0 0 0 0 0 0 0 0 0 0 0 0 0 0 0 0 0 0
1 1 0 0 0 0 0 0 0 0 0 0 0 0 0 0 0 0 0 0 0 0 0 0 0 0 0 0 0 0 0 0 0 0 0 0 0 0 0 0 0 0 0 0
0 0 0 0 0 0 0 0 0 0 0 0 0 0 0 0 0 0 0 0 0 0 0 0 0 0 0 0 0 0 0 0 0 0 0 0 0 0 0 0 0 0 0 0
0 0 0 0 0 0 0 0 0 0 0 0 0 0 0 0 0 0 0 0 0 0 0 0 0 0 0 0 0 0 0 0 0 0 0 0 0 0 0 0 0 0 0 0
0 0 0 0 0 0 0 0 0 0 0 0 0 0 0 0 0 0 0 0 0 0 0 0 0 0 0 0 0 0 0 0 0 0 0 0 0 0 0 0 0 0 0 0
0 0 0 0 0 0 0 0 0 0 0 0 0 0 0 0 0 0 0 0 0 0 0 0 0 0 0 0 0 0 0 0 0 0 0 0 0 0 0 0 0 0 0 0

GEFSNGP_con_probscp_174.txt.gz
Probability
0 0 1 2 2 1 0 0 1 2 4 4 6 7 6 7 8 11 14 15 16 17 17 17 14 13 13 11 7 4 3 2 1 0 0 0 0 0 0 0 0 0 0 0
0 0 1 2 2 1 1 1 3 4 4 4 5 6 7 9 12 15 16 17 18 19 20 19 17 16 16 13 8 5 4 3 2 1 0 0 0 0 1 1 0 0 0 1
0 0 1 1 1 2 3 3 4 5 4 4 4 5 6 10 15 19 19 19 19 20 21 21 20 19 17 13 9 7 5 5 3 1 1 1 1 1 2 3 2 1 1 2
0 0 0 0 1 2 4 5 5 5 5 4 4 4 6 10 16 20 20 18 18 20 21 21 20 18 15 12 9 7 6 5 3 2 2 2 2 3 3 4 4 3 3 4
0 0 0 0 1 2 2 3 5 6 7 8 7 7 10 13 17 21 20 18 19 20 20 20 20 16 12 10 9 7 5 5 4 3 3 3 3 3 3 4 4 5 5 5
0 0 0 0 1 1 1 2 5 7 9 11 11 11 15 19 21 23 22 20 20 20 20 20 18 16 13 10 8 7 6 6 5 4 3 2 2 2 2 3 3 4 4 4
0 0 0 1 2 2 1 3 6 8 9 12 13 13 16 22 24 25 25 24 20 18 18 19 16 13 12 10 9 8 8 7 7 5 3 1 1 2 2 2 3 3 3 3
0 0 0 1 2 1 1 4 7 7 6 10 13 13 15 19 22 23 26 26 21 17 15 14 12 10 10 9 9 9 9 8 8 6 3 2 2 2 2 3 3 2 1 2
1 1 1 2 3 4 4 6 7 6 6 10 13 15 15 16 18 20 23 25 22 17 13 10 8 8 7 7 7 8 9 8 7 6 4 3 3 3 3 3 3 2 1 1
4 4 4 5 7 9 9 9 10 11 12 14 15 15 15 16 16 18 21 24 22 18 13 9 6 5 5 6 6 6 7 7 7 6 4 3 3 3 3 3 3 2 2 2
4 4 5 7 8 10 11 10 12 15 18 18 17 14 13 14 16 17 19 22 22 18 12 7 4 4 4 5 5 5 6 7 6 5 4 3 3 3 2 2 1 1 1 2
2 2 4 6 7 7 9 9 11 13 15 16 15 12 11 12 14 14 16 18 19 16 10 6 4 4 5 5 5 4 4 6 6 4 3 3 3 2 1 1 0 0 0 1
0 2 5 8 7 6 7 8 8 9 9 10 9 7 8 9 10 10 11 12 13 11 8 6 6 6 6 6 6 5 5 6 6 4 3 3 3 2 1 0 0 0 0 0
1 4 7 9 8 6 5 6 6 5 5 5 5 4 4 5 6 6 5 5 6 6 6 6 6 6 7 7 7 7 7 7 5 3 2 2 2 2 1 0 0 0 0 0
3 4 5 6 6 4 4 4 4 3 4 4 4 3 1 1 2 2 1 1 1 2 3 4 5 5 6 6 6 6 6 6 4 2 2 1 1 1 0 0 0 0 0 0
3 3 4 4 4 4 3 3 3 3 3 3 4 3 1 1 2 2 1 0 0 1 2 3 3 2 3 3 3 2 3 3 2 2 1 0 0 0 0 0 0 0 0 0
3 3 3 3 3 3 3 3 3 3 2 2 3 2 2 2 2 2 1 0 0 1 2 2 1 0 1 1 0 0 1 1 1 1 0 0 0 0 0 0 0 0 0 0
1 2 2 1 1 2 2 2 2 2 2 2 2 1 1 1 1 1 0 0 0 0 1 1 0 0 0 0 0 0 0 0 0 0 0 0 0 0 0 0 0 0 0 0
0 1 1 0 0 1 1 1 1 1 1 1 1 0 0 0 0 0 0 0 0 0 0 0 0 0 0 0 0 0 0 0 0 0 0 0 0 0 0 0 0 0 0 0
0 0 0 0 0 0 0 0 0 0 0 0 0 0 0 0 0 0 0 0 0 0 0 0 0 0 0 0 0 0 0 0 0 0 0 0 0 0 0 0 0 0 0 0
0 0 0 0 0 0 0 0 0 0 0 0 0 0 0 0 0 0 0 0 0 0 0 0 0 0 0 0 0 0 0 0 0 0 0 0 0 0 0 0 0 0 0 0
0 0 0 0 0 0 0 0 0 0 0 0 0 0 0 0 0 0 0 0 0 0 0 0 0 0 0 0 0 0 0 0 0 0 0 0 0 0 0 0 0 0 0 0
0 0 0 0 0 0 0 0 0 0 0 0 0 0 0 0 0 0 0 0 0 0 0 0 0 0 0 0 0 0 0 0 0 0 0 0 0 0 0 0 0 0 0 0
0 0 0 0 0 0 0 0 0 0 0 0 0 0 0 0 0 0 0 0 0 0 0 0 0 0 0 0 0 0 0 0 0 0 0 0 0 0 0 0 0 0 0 0
0 0 0 0 0 0 0 0 0 0 0 0 0 0 0 0 0 0 0 0 0 0 0 0 0 0 0 0 0 0 0 0 0 0 0 0 0 0 0 0 0 0 0 0
0 0 0 0 0 0 0 0 0 0 0 0 0 0 0 0 0 0 0 0 0 0 0 0 0 0 0 0 0 0 0 0 0 0 0 0 0 0 0 0 0 0 0 0
0 0 0 0 0 0 0 0 0 0 0 0 0 0 0 0 0 0 0 0 0 0 0 0 0 0 0 0 0 0 0 0 0 0 0 0 0 0 0 0 0 0 0 0

GEFSNGP_con_probscp_180.txt.gz
Probability
0 0 0 0 0 0 0 0 0 1 4 6 8 11 17 23 26 26 27 30 38 44 45 43 42 37 31 27 27 27 25 21 19 19 16 12 11 10 10 7 5 4 3 3
0 0 0 1 1 0 0 0 0 1 4 7 10 15 21 25 27 28 28 31 37 43 45 45 43 37 32 27 27 28 27 24 23 22 19 14 11 9 8 7 6 6 5 4
0 0 0 1 2 1 0 0 1 4 7 9 13 18 22 26 28 29 30 34 38 41 43 44 41 37 33 30 28 28 27 25 25 24 21 16 13 10 7 6 5 6 5 4
0 0 0 1 2 2 1 2 5 9 12 14 16 19 22 26 29 30 33 37 39 39 40 41 39 37 35 33 29 26 24 23 22 21 19 18 15 11 8 6 5 4 3 3
0 0 0 1 2 3 4 6 9 14 19 20 17 18 25 30 31 33 36 40 41 41 42 43 41 38 35 34 30 27 25 23 19 17 18 18 16 12 9 8 7 5 3 3
0 0 0 2 3 3 6 11 16 21 27 26 21 23 32 37 37 39 41 44 45 46 48 48 44 39 37 35 32 29 26 23 21 19 19 18 16 12 11 11 8 6 4 3
0 0 2 6 8 9 14 24 30 32 35 36 35 38 41 40 41 44 44 44 45 47 48 48 44 41 39 37 32 27 24 24 24 24 21 18 16 13 11 9 7 5 4 3
2 4 10 20 26 29 36 43 44 43 45 48 49 49 45 41 41 43 43 43 43 46 47 46 44 42 40 36 29 23 21 24 26 25 21 18 16 13 9 7 5 3 3 3
15 18 27 38 47 51 53 53 51 50 51 52 51 49 45 42 40 40 41 41 42 45 46 44 41 38 35 31 26 23 22 23 24 22 20 17 15 12 8 5 4 3 3 3
33 36 42 49 56 58 55 52 51 50 48 46 45 45 44 42 40 39 38 37 36 38 40 38 33 31 28 25 24 25 24 23 22 19 15 13 12 9 6 5 4 3 3 3
43 45 49 53 57 58 54 51 48 44 40 39 40 41 41 40 38 37 35 31 29 30 32 30 27 24 24 23 23 23 23 22 20 16 11 9 8 6 5 4 3 3 3 3
44 47 52 55 56 56 52 48 44 40 37 37 38 38 37 36 35 34 31 28 26 26 26 25 22 20 20 21 20 19 20 20 18 14 10 8 6 4 3 3 2 1 2 2
46 47 49 50 47 44 42 39 37 35 34 35 34 32 30 28 26 25 24 22 22 21 20 19 18 17 17 17 16 17 17 17 16 13 10 8 6 4 3 3 1 1 1 1
43 41 40 38 33 29 26 26 28 28 28 27 26 23 22 20 18 16 15 13 12 12 12 13 14 14 14 14 14 15 16 16 14 11 10 9 7 4 3 3 3 3 2 1
31 29 26 24 20 16 15 17 19 19 18 18 18 18 17 15 13 10 9 7 5 5 6 9 11 12 12 12 12 13 13 12 10 9 9 8 7 4 3 3 4 4 3 1
19 18 16 14 12 10 9 11 13 13 12 12 14 14 14 11 9 8 8 6 3 3 4 6 8 9 9 9 9 8 8 6 5 5 6 5 4 3 3 3 4 4 2 1
12 13 13 12 11 8 7 7 9 10 9 10 11 11 9 7 6 5 4 3 1 1 2 4 5 6 7 7 6 5 3 1 1 1 2 2 1 1 2 2 3 2 1 0
8 10 11 11 11 9 7 7 7 8 9 9 9 7 5 3 3 2 1 1 0 0 1 1 2 4 5 5 4 2 1 0 0 0 0 0 0 0 1 1 1 1 1 1
5 6 7 8 8 8 6 6 6 8 9 8 7 4 2 1 1 0 0 0 0 0 0 1 2 3 4 3 2 1 0 0 0 0 0 0 0 0 0 0 0 0 0 0
3 3 3 4 4 5 4 3 4 5 6 5 3 2 0 0 0 0 0 0 0 0 1 2 2 3 3 2 1 0 0 0 0 0 0 0 0 0 0 0 0 0 0 0
1 1 1 1 1 1 1 1 1 1 2 1 1 0 0 0 0 0 0 0 0 0 1 1 2 2 1 1 0 0 0 0 0 0 0 0 0 0 0 0 0 0 0 0
0 0 0 0 0 0 0 0 0 0 0 0 0 0 0 0 0 0 0 0 0 0 0 0 1 1 0 0 0 0 0 0 0 0 0 0 0 0 0 0 0 0 0 0
0 0 0 0 1 1 1 0 0 0 0 0 0 0 0 0 0 0 0 0 0 0 0 0 0 0 0 0 0 0 0 0 0 0 0 0 0 0 0 0 0 0 0 0
0 0 0 0 1 2 1 0 0 0 0 0 0 0 0 0 0 0 0 0 0 0 0 0 0 0 0 0 0 0 0 0 0 0 0 0 0 0 0 0 0 0 0 0
0 0 0 0 0 1 1 0 0 0 0 0 0 0 0 0 0 0 0 0 0 0 0 0 0 0 0 0 0 0 0 0 0 0 0 0 0 0 0 0 0 0 0 0
0 0 0 0 0 0 0 0 0 0 0 0 0 0 0 0 0 0 0 0 0 0 0 0 0 0 0 0 0 0 0 0 0 0 0 0 0 0 0 0 0 0 0 0
0 0 0 0 0 0 0 0 0 0 0 0 0 0 0 0 0 0 0 0 0 0 0 0 0 0 0 0 0 0 0 0 0 0 0 0 0 0 0 0 0 0 0 0